mashhad/مشهد

Mashhad International Airport (IATAMHDICAOOIMM) (Persianفرودگاه شهید هاشمی نژاد مشهد‎) is an international airport located in MashhadRazavi KhorasanIran. It is also known as Shahid Hasheminejad International Airport.

Current weather information

OIMM METAR 

OIMM 201000Z 04016KT CAVOK 40/05 Q1014 A2995


QNH:1014
Temp:40
Dewpoint:5

mehrabad/مهراباد

Tehran Mehrabad International Airport (Persianفرودگاه بین المللی مهرآباد‎) (IATATHRICAOOIII), is a joint airport and was one of the two international airports serving Tehran, the largest city in Iran. Until 2007 and before construction of the new airport for the city, Mehrabad was Tehran’s primary airport in both international and domestic traffic, but after 2007 International flights transferred to Imam Khomeini International Airport. All International flights in Tehran are currently served by Imam Khomeini International Airport and all domestic flights are served by this airport. Although only domestic flights are served by this airport, in 2016 Mehrabad Airport handled 16,678,351 passengers and was the busiest airport in Iran in terms of passengers. The airport is also used by the Government of Iran and is one of the bases of the Iranian Air Force.

Current weather information

OIII METAR 

OIII 201000Z 14008KT 9999 FEW040 39/M01 Q1014 A2995 NOSIG


QNH:1014
Temp:39
Dewpoint:-1

Tabriz/تبریز

Tabriz International Airport (Persianفرودگاه بین المللی تبریز‎) (IATATBZICAOOITT) is an airport that serves Tabriz, Iran. It is the primary airport of Tabriz. The runway of the airport is mutually being used by Tactical Air Base 2 of the Islamic Republic of Iran Air Force.

Current weather information

OITT METAR 

OITT 201000Z 05012KT 030V090 CAVOK 34/10 Q1017 A3003 NOSIG


QNH:1017
Temp:34
Dewpoint:10